COSMOS 1796

Satellite information

Favourite Embed

Satellite Type and Status

PAYLOADIN ORBIT

Key statistics

Satellite COSMOS 1796 at a glance.

Uptime

14222

Days in orbit

Revolutions

≈ 12.5

Per day

Orbit

LEO

Low Earth Orbit

Inclination

74.0

Latest

Satellite identification and parameters

Extended collection of information and parameters for COSMOS 1796.

Object identification

Identified? True

Debris? False

Object name: COSMOS 1796

International designator: 1986-092C

Object number (NORAD): 17140

Object ID (CCSDS): 17140

Country: COMMONWEALTH OF INDEPENDENT STATES (CIS)

Current information (Y/N): Y

RCS size: MEDIUM

Orbital parameters

Period: 115.233 minutes

Inclination: 74.0115 deg

SMA: 7844.143 km

Apoapsis: 1477.454 km

Periapsis: 1454.561 km

RAAN: 277.3985 deg

Eccentricy: 0.0014592

Argument of periapsis: 66.6838 deg

Mean anomaly: 48.918 deg

Mean motion: 12.49638927 rev/day

Mean motion (dot): 0.00000008 rev/day2

B* drag term: 0.00015469593 1/REarth

Two-line elements (TLE)

Creation date: Oct. 28, 2025, 7:11 p.m.

Reference frame: TEME

Reference center: EARTH

Epoch: Oct. 28, 2025, 9:43 a.m. UTC

TLE line 0: 0 COSMOS 1796

TLE line 1: 1 17140U 86092C 25301.40552488 .00000008 00000-0 15470-3 0 9993

TLE line 2: 2 17140 74.0115 277.3985 0014592 66.6838 48.9180 12.49638927776227

Live tracking on map

Real-time ground track for satellite COSMOS 1796.

In-orbit conjunctions

A list of the most updated potential collisions computed for object COSMOS 1796.

Target Orbit TCA Probability of collision Miss distance Type
COSMOS 1823 DEB LEO 2025-08-09 05:27:19 0.0005985081 289.0 (m) DEBRIS

Associated space launch

Military communications satellites

COSMOS 1796 was lifted into orbit during the mission ‘Kosmos-3M | Strela-1M 313-320’, on board a Kosmos-3M space rocket.

The launch took place on Nov. 21, 1986, 2 a.m. from 132/2.

For more information about the launch, click the button.

Launch to space Kosmos-3M | Strela-1M 313-320
Kosmos-3M | Strela-1M 313-320

Agency: N/A

Status: Launch Successful

Launch date: Nov. 21, 1986, 2 a.m. UTC

Rocket: Kosmos-3M

Launch pad: 132/2

Location: Plesetsk Cosmodrome, Russian Federation

...

Latest news about this satellite

There are no fresh news available about this satellite. Check back as we update our databases every day.


Newsletter sign-up

Weekly statistics, charts and insights to help you stay on top of the space industry.